Change the Weather History Date:

Thursday, April 17, 2014

  Actual Average (KMLT) Record (KMLT)
Temperature  
Mean Temperature 26 °F 42 °F  
Max Temperature 39 °F 52 °F 79 °F (2012)
Min Temperature 14 °F 32 °F 8 °F (1930)
Degree Days  
Heating Degree Days 40 23  
Month to date heating degree days 463  
Since 1 July heating degree days 7662  
Cooling Degree Days 0 0  
Month to date cooling degree days 0  
Year to date cooling degree days 0  
Moisture  
Dew Point 11 °F    
Average Humidity 52    
Maximum Humidity 80    
Minimum Humidity 32    
Precipitation  
Precipitation 0.00 in 0.12 in 1.45 in (1983)
Month to date precipitation 2.15  
Year to date precipitation 10.32  
Sea Level Pressure  
Sea Level Pressure 30.73 in    
Wind  
Wind Speed 4 mph (ENE)    
Max Wind Speed 8 mph    
Max Gust Speed -    
T = Trace of Precipitation, MM = Missing Value Source: NWS Daily Summary

Daily Weather History Graph

Daily Weather History Graph

Search for Another Location

Airport or City:

Trip Planner

Search our weather history database for the weather conditions in past years. The results will help you decide how hot, cold, wet, or windy it might be!

Date:

Astronomy

Apr. 17, 2014 Rise Set
Actual Time 5:49 AM EDT 7:27 PM EDT
Civil Twilight 5:18 AM EDT 7:58 PM EDT
Nautical Twilight 4:40 AM EDT 8:36 PM EDT
Astronomical Twilight 3:59 AM EDT 9:17 PM EDT
Moon 10:15 PM EDT (4/17) 7:13 AM EDT (4/17)
Length of Visible Light 14h 39m
Length of Day
13h 37m
Waning Gibbous, 94% of the Moon is Illuminated
Apr 17
Waning Gibbous
Apr 22
Last Quarter
Apr 29
New
May 6
First Quarter
May 14
Full

Hourly Weather History & Observations

Time (EDT) Temp. Windchill Dew Point Humidity Pressure Visibility Wind Dir Wind Speed Gust Speed Precip Events Conditions
12:56 AM 19.0 °F 9.0 °F 9.0 °F 65% 30.63 in - NNW 8.1 mph - N/A   Unknown
1:56 AM 16.0 °F - 9.0 °F 74% 30.66 in - Calm Calm - N/A   Unknown
2:56 AM 17.1 °F 11.7 °F 9.0 °F 71% 30.67 in - North 3.5 mph - N/A   Unknown
3:56 AM 16.0 °F 8.8 °F 9.0 °F 74% 30.70 in - NNW 4.6 mph - N/A   Unknown
4:56 AM 17.1 °F 7.6 °F 9.0 °F 71% 30.71 in - North 6.9 mph - N/A   Unknown
5:56 AM 14.0 °F - 9.0 °F 80% 30.76 in - Calm Calm - N/A   Unknown
6:56 AM 19.0 °F - 10.0 °F 68% 30.79 in - Calm Calm - N/A   Unknown
7:56 AM 21.9 °F - 10.9 °F 63% 30.80 in - Calm Calm - N/A   Unknown
8:56 AM 27.0 °F 23.0 °F 12.0 °F 53% 30.81 in - Variable 3.5 mph - N/A   Unknown
9:56 AM 28.0 °F 24.2 °F 10.9 °F 49% 30.82 in - NNE 3.5 mph - N/A   Unknown
10:56 AM 30.9 °F 25.2 °F 12.0 °F 46% 30.81 in - NW 5.8 mph - N/A   Unknown
12:56 PM 35.1 °F 31.0 °F 10.0 °F 35% 30.79 in - Variable 4.6 mph - N/A   Unknown
1:56 PM 37.0 °F 32.4 °F 10.9 °F 34% 30.77 in - South 5.8 mph - N/A   Unknown
2:56 PM 37.9 °F 34.4 °F 10.0 °F 32% 30.75 in - Variable 4.6 mph - N/A   Unknown
3:56 PM 37.9 °F 32.1 °F 10.0 °F 32% 30.74 in - SE 8.1 mph - N/A   Unknown
4:56 PM 37.9 °F 34.4 °F 10.0 °F 32% 30.73 in - South 4.6 mph - N/A   Unknown
5:56 PM 37.9 °F 35.5 °F 12.0 °F 35% 30.73 in - Variable 3.5 mph - N/A   Unknown
6:56 PM 36.0 °F - 14.0 °F 41% 30.72 in - Calm Calm - N/A   Unknown
7:56 PM 33.1 °F - 12.9 °F 43% 30.71 in - Calm Calm - N/A   Unknown
8:56 PM 30.9 °F - 12.9 °F 47% 30.71 in - Calm Calm - N/A   Unknown
9:56 PM 30.0 °F 26.5 °F 14.0 °F 51% 30.69 in - SSE 3.5 mph - N/A   Unknown
10:56 PM 28.9 °F 23.9 °F 12.0 °F 49% 30.68 in - ESE 4.6 mph - N/A   Unknown
11:56 PM 28.0 °F 22.8 °F 14.0 °F 56% 30.66 in - SSE 4.6 mph - N/A   Unknown